User: anonymous   Login
Location: Unspecified
(0.0000°N, 0.0000°E)
Time: 15:39:46
(UTC+00:00)
Language:

Tiangong 1 - Orbit

View from above orbital plane
View from above orbital plane
View from above satellite
View from above satellite

Ground track
Ground track

The orbit data is extracted from the following two-line orbital elements,

1 37820U 11053A   15187.24621417  .00019037  00000-0  21447-3 0  9990
2 37820 042.7654 161.1773 0012112 163.1313 277.8640 15.62092493216308
Epoch (UTC): 06 July 2015 05:54:32
Eccentricity: 0.0012112
inclination: 42.7654°
perigee height: 373 km
apogee height: 390 km
right ascension of ascending node: 161.1773°
argument of perigee: 163.1313°
revolutions per day: 15.62092493
mean anomaly at epoch: 277.8640°
orbit number at epoch: 21630

The dashed part of the orbit path shows where the satellite is in the earth's shadow,  

DLR